Flag for Germany Weather past 2 weeks in Wedel, Schleswig-Holstein, Germany

Now
70 °F

Passing clouds.


Feels Like: 70 °F
Forecast: 60 / 80 °F
Wind: 10 mph from Northeast

Location: Hamburg-Finkenwerder

Current Time: Jul 23, 2014 at 8:28:17 AM

Latest Report: Jul 23, 2014 at 7:50 AM


Visibility: N/A

Pressure: 30.18 "Hg

Humidity: 69%

Dew point: 59 °F

Location of WedelLocation

Historic Weather in Wedel — Graph

°F

Wedel temperature yesterday

Maximum temperature yesterday: 84 °F (at 4:20 PM)
Minimum temperature yesterday: 64 °F (at 5:50 AM)
Average temperature yesterday: 76 °F

Past Weeks' High & Low Weather Summary

 TemperatureHumidityPressure
High86 °F (Jul 18, 3:20 PM)100% (Jul 8, 11:20 AM)30.18 "Hg (Jul 8, 11:20 AM)
Low54 °F (Jul 17, 5:20 AM)40% (Jul 18, 3:50 PM)29.59 "Hg (Jul 9, 2:50 PM)
Average72 °F69%29.95 "Hg
* Reported Jul 8 6:20 AM — Jul 23 6:50 AM, Wedel, Weather by CustomWeather, © 2014

Note: Actual official high and low records may vary slightly from our data, if they occured in-between our weather recording intervals... More about our weather records

Advertising

Wedel weather history for previous 24 hours

 ConditionsComfort  
Time TempWeatherWind HumidityBarometerVisibility
6:50 AM
Jul 23
66 °FSunny.7 mph78%30.18 "Hg10 mi
6:20 AM64 °FClear.3 mph83%30.18 "Hg10 mi
5:50 AM64 °FPassing clouds.5 mph83%30.18 "HgN/A
6:50 PM
Jul 22
81 °FPassing clouds.16 mph51%30.09 "HgN/A
6:20 PM82 °FSunny.14 mph45%30.09 "Hg10 mi
5:50 PM82 °FSunny.18 mph42%30.07 "Hg10 mi
5:20 PM82 °FSunny.17 mph42%30.07 "Hg10 mi
4:50 PM82 °FSunny.16 mph45%30.07 "Hg10 mi
4:20 PM84 °FSunny.14 mph43%30.07 "Hg10 mi
3:50 PM82 °FPassing clouds.16 mph42%30.07 "HgN/A
3:20 PM82 °FPassing clouds.13 mph45%30.09 "HgN/A
2:50 PM82 °FPassing clouds.12 mph45%30.07 "HgN/A
2:20 PM82 °FScattered clouds.14 mph45%30.07 "HgN/A
1:20 PM81 °FScattered clouds.14 mph51%30.09 "HgN/A
12:50 PM81 °FScattered clouds.13 mph51%30.07 "HgN/A
12:20 PM79 °FScattered clouds.15 mph54%30.09 "HgN/A
11:50 AM77 °FScattered clouds.17 mph57%30.07 "HgN/A
11:20 AM77 °FScattered clouds.15 mph57%30.07 "HgN/A
10:50 AM77 °FSunny.17 mph61%30.07 "Hg10 mi
10:20 AM73 °FSunny.15 mph69%30.07 "Hg10 mi
9:50 AM73 °FScattered clouds.12 mph69%30.09 "HgN/A
9:20 AM72 °FScattered clouds.14 mph73%30.07 "HgN/A
8:50 AM70 °FScattered clouds.10 mph78%30.07 "HgN/A
8:20 AM68 °FScattered clouds.10 mph83%30.07 "HgN/A
Weather by CustomWeather, © 2014

See weather overviewHow to use our weather pages